Zurück zum Katalog

FENGYUN 1C DEB

AktivPO
NORAD 31990·DEBRIS·🇨🇳 China

Gestartet May 10, 1999 von Taiyuan Satellite Launch Center

Loading…

Nächste Überflüge (nächste 24 Stunden)

TLE

AlterndSource: Space-Track

Epoche: Sep 10, 2026, 06:17 UTC

1 31990U 99025CPT 26253.26207241  .00000134  00000-0  19666-3 0  9998
2 31990  99.1476 262.2326 0259155 208.9923 214.9659 13.57326042664558

Verfolge FENGYUN 1C DEB in Echtzeit mit AllMySat

Download on the App Store